Location: Calvatone
(45.1167°N, 10.4333°E)
Time: 11:41:43
(UTC+00:00)

In-Cosmos 22 Rocket - Pass Details

Date: 28 January 2023
Orbit: 789 x 888 km, 81.2° (Epoch: 29 March)

Event Time Altitude Azimuth Distance (km) Brightness Sun altitude
Rises 18:19:37 0° 178° (S) 3,438 7.4 -21.2°
Reaches altitude 10° 18:22:03 10° 176° (S) 2,516 6.7 -21.6°
Maximum altitude 18:27:43 64° 96° (E) 979 4.2 -22.6°
Enters shadow 18:32:56 13° 17° (NNE) 2,357 6.3 -23.5°
